SES-12 (43488 NORAD) Tracking and Keplerian Element Data

This shows tracking and keplerian element data for the satellite.

Feedback or suggestion? Click here.




ElementValue
Catalog43488
NameSES-12
Epoch Orbit35
Epoch Day184.625
Epoch Year2018
RAAN161.4413
Inclination17.8562
Eccentricity0.764968
Argument of Perigee173.1552
Mean Anonmoly35.5563
Mean Motion1.07950932
Decay Rate-1.3E-06
L11 43488U 18049A 18184.62500000 -.00000130 00000-0 00000+0 0 9998
L22 43488 17.8562 161.4413 7649680 173.1552 35.5563 1.07950932 353

Live tracking and technical data element details for SES-12 (NORAD 43488). SES-12 can be tracked NOW for your location showing map with azimuth and elevation plus other details from your city location.

Track the satellite on the map from your city or location and see movement details for azimuth, elevation, latitude, longitude, range, height, and movement on the map or in text.







IsCatalogInMostPopularTable: catalog: 43488, numindb: 56
Update: records affected: 1



GetName: 43488 SES-12

Hit Count: updated at: Fri, 16 Nov 2018 02:57:19 GMT